When you browse on this site, cookies collect data to enhance your experience and personalize the content and advertising you see.
Visit our Privacy Policy to learn more. By continuing to use the site, you agree to this use of cookies and data.

Météo par heure à Caen

Ce jour, 28 Septembre, Lundi

Heure Température Précipitation Vent Pression Humidité
00:00 +12°C° 0 mm 5 m/s 759 mmHg 84%
01:00 +10°C° 0 mm 5 m/s 758 mmHg 84%
02:00 +10°C° 0 mm 5 m/s 758 mmHg 84%
03:00 +9°C° 0 mm 5 m/s 758 mmHg 84%
04:00 +9°C° 0 mm 5 m/s 758 mmHg 85%
05:00 +10°C° 0 mm 4 m/s 758 mmHg 86%
06:00 +10°C° 0 mm 4 m/s 758 mmHg 86%
07:00 +10°C° 0 mm 5 m/s 758 mmHg 80%
08:00 +12°C° 0 mm 5 m/s 758 mmHg 73%
09:00 +14°C° 0 mm 6 m/s 759 mmHg 67%
10:00 +15°C° 0 mm 6 m/s 759 mmHg 65%
11:00 +16°C° 0 mm 6 m/s 759 mmHg 63%
12:00 +17°C° 0 mm 5 m/s 759 mmHg 61%
13:00 +17°C° 0 mm 5 m/s 759 mmHg 65%
14:00 +17°C° 0 mm 5 m/s 759 mmHg 69%
15:00 +17°C° 0 mm 5 m/s 758 mmHg 74%
16:00 +16°C° 0 mm 5 m/s 759 mmHg 79%
17:00 +15°C° 0 mm 4 m/s 759 mmHg 84%
18:00 +14°C° 0 mm 4 m/s 759 mmHg 90%
19:00 +14°C° 0 mm 4 m/s 759 mmHg 91%
20:00 +14°C° 0 mm 3 m/s 760 mmHg 93%
21:00 +16°C° 0 mm 3 m/s 760 mmHg 95%
22:00 +16°C° 0 mm 3 m/s 760 mmHg 95%
23:00 +16°C° 0 mm 3 m/s 760 mmHg 96%

Demain, 29 Septembre, Mardi

Heure Température Précipitation Vent Pression Humidité
00:00 +16°C° 0 mm 3 m/s 760 mmHg 97%
01:00 +16°C° 0.1 mm 3 m/s 760 mmHg 97%
02:00 +15°C° 0.1 mm 4 m/s 760 mmHg 97%
03:00 +15°C° 0.1 mm 4 m/s 759 mmHg 97%
04:00 +16°C° 0.1 mm 3 m/s 760 mmHg 97%
05:00 +14°C° 0.1 mm 3 m/s 760 mmHg 97%
06:00 +14°C° 0.1 mm 3 m/s 760 mmHg 97%
07:00 +16°C° 0 mm 3 m/s 760 mmHg 94%
08:00 +16°C° 0 mm 3 m/s 760 mmHg 91%
09:00 +17°C° 0 mm 3 m/s 760 mmHg 88%
10:00 +17°C° 0 mm 3 m/s 761 mmHg 84%
11:00 +17°C° 0 mm 3 m/s 761 mmHg 81%
12:00 +18°C° 0 mm 3 m/s 761 mmHg 77%
13:00 +18°C° 0 mm 3 m/s 760 mmHg 75%
14:00 +18°C° 0 mm 3 m/s 760 mmHg 72%
15:00 +19°C° 0 mm 3 m/s 760 mmHg 69%
16:00 +17°C° 0 mm 3 m/s 760 mmHg 74%
17:00 +15°C° 0 mm 2 m/s 760 mmHg 79%
18:00 +14°C° 0 mm 2 m/s 760 mmHg 84%
19:00 +13°C° 0 mm 2 m/s 760 mmHg 85%
20:00 +12°C° 0 mm 2 m/s 760 mmHg 87%
21:00 +11°C° 0 mm 1 m/s 760 mmHg 89%
22:00 +10°C° 0 mm 2 m/s 760 mmHg 89%
23:00 +9°C° 0 mm 2 m/s 760 mmHg 89%

Après-demain, 30 Septembre, Mercredi

Heure Température Précipitation Vent Pression Humidité
00:00 +9°C° 0 mm 2 m/s 760 mmHg 90%
01:00 +9°C° 0 mm 2 m/s 759 mmHg 89%
02:00 +10°C° 0 mm 2 m/s 759 mmHg 88%
03:00 +10°C° 0 mm 2 m/s 759 mmHg 87%
04:00 +12°C° 0 mm 2 m/s 758 mmHg 87%
05:00 +11°C° 0 mm 3 m/s 758 mmHg 88%
06:00 +12°C° 0 mm 3 m/s 758 mmHg 88%
07:00 +13°C° 0 mm 4 m/s 757 mmHg 85%
08:00 +14°C° 0 mm 5 m/s 757 mmHg 82%
09:00 +15°C° 0 mm 6 m/s 757 mmHg 79%
10:00 +16°C° 0.1 mm 6 m/s 756 mmHg 76%
11:00 +17°C° 0.1 mm 7 m/s 756 mmHg 72%
12:00 +20°C° 0.1 mm 7 m/s 755 mmHg 69%
13:00 +20°C° 0.1 mm 7 m/s 754 mmHg 69%
14:00 +18°C° 0.1 mm 7 m/s 754 mmHg 69%
15:00 +18°C° 0.1 mm 7 m/s 753 mmHg 69%
16:00 +17°C° 0.3 mm 6 m/s 753 mmHg 74%
17:00 +16°C° 0.3 mm 6 m/s 752 mmHg 79%
18:00 +15°C° 0.3 mm 5 m/s 752 mmHg 84%
19:00 +15°C° 1.3 mm 5 m/s 752 mmHg 87%
20:00 +14°C° 1.3 mm 5 m/s 751 mmHg 91%
21:00 +14°C° 1.3 mm 5 m/s 751 mmHg 94%
22:00 +14°C° 1.3 mm 4 m/s 750 mmHg 94%
23:00 +13°C° 1.3 mm 4 m/s 750 mmHg 94%

1 Octobre, Jeudi

Heure Température Précipitation Vent Pression Humidité
00:00 +13°C° 1.3 mm 3 m/s 749 mmHg 94%
01:00 +13°C° 0.2 mm 3 m/s 749 mmHg 95%
02:00 +12°C° 0.2 mm 3 m/s 748 mmHg 95%
03:00 +12°C° 0.2 mm 3 m/s 748 mmHg 96%
04:00 +12°C° 0.4 mm 3 m/s 748 mmHg 95%
05:00 +12°C° 0.4 mm 3 m/s 748 mmHg 95%
06:00 +12°C° 0.4 mm 3 m/s 748 mmHg 95%
07:00 +11°C° 1.8 mm 4 m/s 748 mmHg 94%
08:00 +10°C° 1.8 mm 5 m/s 748 mmHg 93%
09:00 +10°C° 1.8 mm 6 m/s 748 mmHg 92%
10:00 +11°C° 0.6 mm 6 m/s 749 mmHg 86%
11:00 +13°C° 0.6 mm 6 m/s 749 mmHg 79%
12:00 +14°C° 0.6 mm 6 m/s 749 mmHg 72%
13:00 +14°C° 0.1 mm 6 m/s 749 mmHg 69%
14:00 +14°C° 0.1 mm 5 m/s 749 mmHg 66%
15:00 +14°C° 0.1 mm 5 m/s 749 mmHg 63%
16:00 +13°C° 0.4 mm 5 m/s 749 mmHg 71%
17:00 +12°C° 0.4 mm 5 m/s 749 mmHg 78%
18:00 +10°C° 0.4 mm 5 m/s 749 mmHg 86%
19:00 +9°C° 0.3 mm 5 m/s 749 mmHg 86%
20:00 +10°C° 0.3 mm 4 m/s 749 mmHg 87%
21:00 +10°C° 0.3 mm 4 m/s 749 mmHg 87%
22:00 +9°C° 0.1 mm 5 m/s 748 mmHg 88%
23:00 +8°C° 0.1 mm 5 m/s 748 mmHg 89%

2 Octobre, Vendredi

Heure Température Précipitation Vent Pression Humidité
00:00 +8°C° 0.1 mm 5 m/s 747 mmHg 90%
01:00 +7°C° 0 mm 5 m/s 746 mmHg 91%
02:00 +7°C° 0 mm 5 m/s 745 mmHg 93%
03:00 +7°C° 0 mm 5 m/s 745 mmHg 94%
04:00 +7°C° 0.1 mm 5 m/s 744 mmHg 94%
05:00 +8°C° 0.1 mm 5 m/s 743 mmHg 94%
06:00 +8°C° 0.1 mm 5 m/s 742 mmHg 94%
07:00 +9°C° 0.5 mm 5 m/s 741 mmHg 94%
08:00 +9°C° 0.5 mm 5 m/s 740 mmHg 93%
09:00 +10°C° 0.5 mm 5 m/s 739 mmHg 93%
10:00 +10°C° 0.1 mm 5 m/s 738 mmHg 90%
11:00 +12°C° 0.1 mm 5 m/s 738 mmHg 87%
12:00 +13°C° 0.1 mm 5 m/s 737 mmHg 84%
13:00 +13°C° 0 mm 5 m/s 736 mmHg 83%
14:00 +13°C° 0 mm 5 m/s 735 mmHg 82%
15:00 +13°C° 0 mm 5 m/s 734 mmHg 81%
16:00 +13°C° 1.5 mm 5 m/s 732 mmHg 86%
17:00 +11°C° 1.5 mm 6 m/s 730 mmHg 91%
18:00 +10°C° 1.5 mm 6 m/s 729 mmHg 96%
19:00 +11°C° 2.6 mm 6 m/s 727 mmHg 96%
20:00 +11°C° 2.6 mm 6 m/s 726 mmHg 96%
21:00 +13°C° 2.6 mm 6 m/s 725 mmHg 96%
22:00 +13°C° 1.1 mm 6 m/s 724 mmHg 96%
23:00 +13°C° 1.1 mm 5 m/s 723 mmHg 96%

3 Octobre, Samedi

Heure Température Précipitation Vent Pression Humidité
00:00 +14°C° 1.1 mm 4 m/s 722 mmHg 95%
01:00 +13°C° 0.4 mm 5 m/s 722 mmHg 95%
02:00 +13°C° 0.4 mm 5 m/s 721 mmHg 94%
03:00 +13°C° 0.4 mm 5 m/s 721 mmHg 93%
04:00 +11°C° 1.4 mm 7 m/s 721 mmHg 93%
05:00 +11°C° 1.4 mm 9 m/s 721 mmHg 93%
06:00 +11°C° 1.4 mm 11 m/s 721 mmHg 92%
07:00 +9°C° 1.5 mm 11 m/s 722 mmHg 92%
08:00 +9°C° 1.5 mm 11 m/s 722 mmHg 91%
09:00 +9°C° 1.5 mm 11 m/s 723 mmHg 90%
10:00 +9°C° 0.4 mm 11 m/s 723 mmHg 90%
11:00 +9°C° 0.4 mm 11 m/s 723 mmHg 90%
12:00 +9°C° 0.4 mm 11 m/s 724 mmHg 89%
13:00 +9°C° 0.9 mm 12 m/s 724 mmHg 89%
14:00 +9°C° 0.9 mm 13 m/s 724 mmHg 89%
15:00 +8°C° 0.9 mm 14 m/s 724 mmHg 89%
16:00 +8°C° 2.7 mm 14 m/s 724 mmHg 90%
17:00 +8°C° 2.7 mm 15 m/s 724 mmHg 90%
18:00 +8°C° 2.7 mm 15 m/s 724 mmHg 90%
19:00 +8°C° 2.3 mm 15 m/s 724 mmHg 90%
20:00 +8°C° 2.3 mm 15 m/s 724 mmHg 90%
21:00 +8°C° 2.3 mm 14 m/s 724 mmHg 91%
22:00 +8°C° 2.1 mm 13 m/s 724 mmHg 91%
23:00 +9°C° 2.1 mm 12 m/s 724 mmHg 91%
Voir plus